TimeCDT,TemperatureF,Dew PointF,Humidity,Sea Level PressureIn,VisibilityMPH,Wind Direction,Wind SpeedMPH,Gust SpeedMPH,PrecipitationIn,Events,Conditions,WindDirDegrees,DateUTC
12:15 AM,41.0,37.4,87,30.18,10.0,Calm,Calm,-,N/A,,Clear,0,2013-05-13 05:15:00
12:35 AM,41.0,39.2,93,30.18,5.0,Calm,Calm,-,N/A,,Clear,0,2013-05-13 05:35:00
12:55 AM,41.0,39.2,93,30.18,8.0,Calm,Calm,-,N/A,,Clear,0,2013-05-13 05:55:00
1:15 AM,41.0,37.4,87,30.19,5.0,Calm,Calm,-,N/A,,Clear,0,2013-05-13 06:15:00
1:35 AM,39.2,37.4,93,30.18,10.0,Calm,Calm,-,N/A,,Clear,0,2013-05-13 06:35:00
1:55 AM,39.2,37.4,93,30.18,10.0,Calm,Calm,-,N/A,,Clear,0,2013-05-13 06:55:00
2:15 AM,37.4,37.4,100,30.18,10.0,Calm,Calm,-,N/A,,Clear,0,2013-05-13 07:15:00
2:35 AM,39.2,37.4,93,30.18,10.0,Calm,Calm,-,N/A,,Clear,0,2013-05-13 07:35:00
2:55 AM,39.2,37.4,93,30.19,10.0,Calm,Calm,-,N/A,,Clear,0,2013-05-13 07:55:00
3:15 AM,39.2,37.4,93,30.19,8.0,Calm,Calm,-,N/A,,Clear,0,2013-05-13 08:15:00
3:35 AM,37.4,37.4,100,30.19,4.0,Calm,Calm,-,N/A,,Clear,0,2013-05-13 08:35:00
3:55 AM,37.4,35.6,93,30.19,8.0,Calm,Calm,-,N/A,,Clear,0,2013-05-13 08:55:00
4:15 AM,37.4,35.6,93,30.19,3.0,Calm,Calm,-,N/A,,Clear,0,2013-05-13 09:15:00
4:35 AM,37.4,37.4,100,30.19,10.0,Calm,Calm,-,N/A,,Clear,0,2013-05-13 09:35:00
4:55 AM,37.4,35.6,93,30.19,6.0,Calm,Calm,-,N/A,,Clear,0,2013-05-13 09:55:00
5:15 AM,37.4,35.6,93,30.19,5.0,Calm,Calm,-,N/A,,Clear,0,2013-05-13 10:15:00
5:35 AM,37.4,37.4,100,30.20,5.0,Calm,Calm,-,N/A,,Clear,0,2013-05-13 10:35:00
5:55 AM,37.4,37.4,100,30.20,5.0,Calm,Calm,-,N/A,,Clear,0,2013-05-13 10:55:00
6:15 AM,35.6,35.6,100,30.20,7.0,Calm,Calm,-,N/A,,Clear,0,2013-05-13 11:15:00
6:35 AM,35.6,35.6,100,30.21,7.0,Calm,Calm,-,N/A,,Clear,0,2013-05-13 11:35:00
6:55 AM,37.4,37.4,100,30.22,5.0,Calm,Calm,-,N/A,,Clear,0,2013-05-13 11:55:00
7:15 AM,39.2,39.2,100,30.22,10.0,Calm,Calm,-,N/A,,Clear,0,2013-05-13 12:15:00
7:35 AM,41.0,39.2,93,30.23,10.0,Calm,Calm,-,N/A,,Clear,0,2013-05-13 12:35:00
7:55 AM,44.6,39.2,81,30.23,9.0,Calm,Calm,-,N/A,,Clear,0,2013-05-13 12:55:00
8:15 AM,44.6,39.2,81,30.23,3.0,Calm,Calm,-,N/A,,Haze,0,2013-05-13 13:15:00
8:35 AM,46.4,41.0,81,30.23,7.0,Calm,Calm,-,N/A,,Clear,0,2013-05-13 13:35:00
8:55 AM,50.0,41.0,71,30.23,6.0,Calm,Calm,-,N/A,,Haze,0,2013-05-13 13:55:00
9:15 AM,53.6,41.0,62,30.23,8.0,SE,3.5,-,N/A,,Clear,140,2013-05-13 14:15:00
9:35 AM,55.4,41.0,58,30.23,4.0,SE,5.8,-,N/A,,Haze,140,2013-05-13 14:35:00
9:55 AM,57.2,41.0,55,30.23,7.0,SE,3.5,-,N/A,,Clear,130,2013-05-13 14:55:00
10:15 AM,59.0,37.4,45,30.22,9.0,ESE,4.6,-,N/A,,Clear,120,2013-05-13 15:15:00
10:35 AM,62.6,33.8,34,30.22,10.0,SE,5.8,-,N/A,,Clear,140,2013-05-13 15:35:00
10:55 AM,62.6,33.8,34,30.21,10.0,SSE,5.8,-,N/A,,Clear,150,2013-05-13 15:55:00
11:15 AM,62.6,32.0,32,30.21,10.0,SE,4.6,-,N/A,,Clear,130,2013-05-13 16:15:00
11:35 AM,64.4,33.8,32,30.21,10.0,SE,4.6,-,N/A,,Clear,140,2013-05-13 16:35:00
11:55 AM,64.4,33.8,32,30.21,10.0,South,8.1,-,N/A,,Clear,170,2013-05-13 16:55:00
12:15 PM,66.2,33.8,30,30.20,10.0,South,5.8,-,N/A,,Clear,170,2013-05-13 17:15:00
12:35 PM,66.2,33.8,30,30.19,10.0,SE,4.6,-,N/A,,Clear,130,2013-05-13 17:35:00
12:55 PM,66.2,33.8,30,30.18,10.0,SE,6.9,-,N/A,,Clear,130,2013-05-13 17:55:00
1:15 PM,68.0,35.6,30,30.17,10.0,South,6.9,-,N/A,,Clear,170,2013-05-13 18:15:00
1:35 PM,68.0,32.0,26,30.16,10.0,SE,6.9,-,N/A,,Clear,140,2013-05-13 18:35:00
1:55 PM,68.0,32.0,26,30.15,10.0,South,5.8,-,N/A,,Clear,190,2013-05-13 18:55:00
2:15 PM,68.0,32.0,26,30.14,10.0,ESE,9.2,-,N/A,,Clear,120,2013-05-13 19:15:00
2:35 PM,71.6,32.0,23,30.13,10.0,East,5.8,-,N/A,,Clear,100,2013-05-13 19:35:00
3:35 PM,71.6,35.6,27,30.11,10.0,Calm,Calm,-,N/A,,Clear,0,2013-05-13 20:35:00
3:55 PM,73.4,35.6,25,30.09,10.0,ESE,6.9,-,N/A,,Clear,120,2013-05-13 20:55:00
4:15 PM,73.4,37.4,27,30.09,10.0,South,10.4,-,N/A,,Clear,180,2013-05-13 21:15:00
4:35 PM,73.4,37.4,27,30.08,10.0,ESE,5.8,-,N/A,,Clear,120,2013-05-13 21:35:00
4:55 PM,73.4,37.4,27,30.08,10.0,Calm,Calm,-,N/A,,Clear,0,2013-05-13 21:55:00
5:15 PM,73.4,37.4,27,30.07,10.0,SE,4.6,-,N/A,,Clear,140,2013-05-13 22:15:00
5:35 PM,75.2,39.2,27,30.06,10.0,South,4.6,-,N/A,,Clear,180,2013-05-13 22:35:00
5:55 PM,75.2,39.2,27,30.05,10.0,SW,6.9,-,N/A,,Clear,230,2013-05-13 22:55:00
6:35 PM,75.2,41.0,29,30.04,10.0,SE,6.9,-,N/A,,Clear,140,2013-05-13 23:35:00
7:15 PM,71.6,42.8,35,30.04,10.0,ESE,4.6,-,N/A,,Clear,110,2013-05-14 00:15:00
7:35 PM,71.6,44.6,38,30.04,10.0,ESE,5.8,-,N/A,,Clear,120,2013-05-14 00:35:00
7:55 PM,69.8,44.6,40,30.03,10.0,SE,4.6,-,N/A,,Clear,130,2013-05-14 00:55:00
8:15 PM,68.0,42.8,40,30.03,10.0,ESE,5.8,-,N/A,,Clear,120,2013-05-14 01:15:00
8:35 PM,66.2,44.6,46,30.03,10.0,ESE,6.9,-,N/A,,Clear,110,2013-05-14 01:35:00
8:55 PM,66.2,44.6,46,30.03,10.0,SE,6.9,-,N/A,,Clear,130,2013-05-14 01:55:00
9:15 PM,66.2,44.6,46,30.02,10.0,SE,6.9,-,N/A,,Clear,140,2013-05-14 02:15:00
9:35 PM,64.4,42.8,45,30.03,10.0,SSE,5.8,-,N/A,,Clear,150,2013-05-14 02:35:00
9:55 PM,64.4,46.4,52,30.03,10.0,SE,5.8,-,N/A,,Clear,140,2013-05-14 02:55:00
10:15 PM,64.4,44.6,49,30.03,10.0,SE,4.6,-,N/A,,Clear,140,2013-05-14 03:15:00
10:35 PM,62.6,46.4,55,30.03,10.0,SE,6.9,-,N/A,,Clear,140,2013-05-14 03:35:00
10:55 PM,62.6,44.6,52,30.02,10.0,SE,8.1,-,N/A,,Clear,140,2013-05-14 03:55:00
11:15 PM,62.6,46.4,55,30.02,10.0,SE,6.9,-,N/A,,Clear,140,2013-05-14 04:15:00
11:35 PM,62.6,46.4,55,30.03,10.0,SE,5.8,-,N/A,,Clear,130,2013-05-14 04:35:00
11:55 PM,62.6,46.4,55,30.02,10.0,SE,4.6,-,N/A,,Clear,140,2013-05-14 04:55:00